Regional Weather Roundup
Issued by NWS

Home | Current Version | Previous Version | Graphics & Text | Print | Product List | Glossary On
Versions: 1 2 3 4 5 6 7 8 9 10 11 12 13 14 15 16 17 18 19 20 21 22 23 24 25 26 27 28 29 30 31 32 33 34 35 36 37 38 39 40 41 42 43 44 45 46 47 48 49 50
000
ASUS43 KOAX 300302
RWRNE

WEATHER ROUNDUP FOR NEBRASKA
NATIONAL WEATHER SERVICE OMAHA NE
1000 PM CDT THU SEP 29 2016

NOTES: SATELLITE DATA IS BEING USED TO AUGMENT CLOUD COVER ABOVE
       12000 FEET.
       "FAIR" INDICATES FEW OR NO CLOUDS BELOW 12,000 FEET WITH NO
       SIGNIFICANT WEATHER AND/OR OBSTRUCTIONS TO VISIBILITY.

  * THESE STATIONS DO NOT REPORT WEATHER SUCH AS RAIN...SNOW OR FOG.

NEZ001>004-019>022-054>056-300400-
NEBRASKA PANHANDLE

CITY           SKY/WX    TMP DP  RH WIND       PRES   REMARKS
SCOTTSBLUFF    CLEAR     63  43  48 SE18G25   30.24R
ALLIANCE       CLEAR     59  42  53 SE14      30.25R
CHADRON        CLEAR     68  40  35 S24G33    30.18S
KIMBALL        CLOUDY    61  44  53 SE12      30.27S
SIDNEY         CLEAR     61  42  49 SE12      30.28R
$$

NEZ057>060-069>072-079>082-300400-
SOUTHWEST NEBRASKA

CITY           SKY/WX    TMP DP  RH WIND       PRES   REMARKS
NORTH PLATTE   CLEAR     50  40  68 E7        30.31S
IMPERIAL       CLEAR     57  41  55 SE13      30.29S
LEXINGTON      CLEAR     51  42  72 SE5       30.33S
MCCOOK         CLEAR     55  43  63 SE9       30.31R
OGALLALA       CLEAR     59  42  52 SE7       30.29S
$$

NEZ005>010-023>029-035>040-094-300400-
NORTH CENTRAL NEBRASKA

CITY           SKY/WX    TMP DP  RH WIND       PRES   REMARKS
VALENTINE      CLEAR     57  40  52 SE12      30.29R
AINSWORTH      CLEAR     55  44  67 SE10      30.31S
BROKEN BOW     CLEAR     49  43  80 SE3       30.33R
O`NEILL        CLEAR     53  44  70 SE8       30.34S
ORD            CLEAR     47  41  80 CALM      30.33R
THEDFORD       CLEAR     54  41  62 SE7       30.32R
$$

NEZ041-046>049-061>064-073>077-083>087-300400-
SOUTH CENTRAL NEBRASKA

CITY           SKY/WX    TMP DP  RH WIND       PRES   REMARKS
GRAND ISLAND   CLEAR     52  46  80 SE6       30.34S
AURORA         CLEAR     51  46  84 SE6       30.35R
HASTINGS       CLEAR     53  44  71 E3        30.35R
HEBRON         CLEAR     50  46  86 CALM      30.34S
HOLDREGE       CLEAR     47  41  77 SE5       30.34S
KEARNEY *      CLEAR     52  43  71 SE6       30.33S
YORK           PTCLDY    54  46  76 SE3       30.35S
$$

NEZ011>018-030>034-042>045-300400-
NORTHEAST NEBRASKA

CITY           SKY/WX    TMP DP  RH WIND       PRES   REMARKS
NORFOLK        CLEAR     52  45  77 SE5       30.35R
ALBION         CLEAR     50  45  83 CALM      30.35R
BLAIR          CLEAR     57  47  69 NE6       30.34S
FREMONT        CLEAR     54  48  82 CALM      30.34S HAZE
TEKAMAH        CLEAR     49  46  90 N5        30.34R
WAYNE          CLEAR     46  44  95 CALM      30.36S
$$

NEZ050>053-065>068-078-088>093-300400-
SOUTHEAST NEBRASKA

CITY           SKY/WX    TMP DP  RH WIND       PRES   REMARKS
LINCOLN        CLEAR     53  47  79 N3        30.35R
OMAHA EPPLEY   CLEAR     55  48  77 NW6       30.34R
BEATRICE       CLEAR     52  48  86 NE3       30.33S
FALLS CITY     CLEAR     57  48  72 CALM      30.32R
NEBRASKA CITY  CLEAR     57  43  58 CALM      30.33S
PLATTSMOUTH    CLEAR     58  44  60 CALM      30.33S
$$

NEZ044-045-051>053-067-300400-
OMAHA AREA

CITY           SKY/WX    TMP DP  RH WIND       PRES   REMARKS
OMAHA EPPLEY   CLEAR     55  48  77 NW6       30.34R
BLAIR          CLEAR     57  47  69 NE6       30.34S
FREMONT        CLEAR     54  48  82 CALM      30.34S HAZE
MILLARD        CLEAR     55  51  86 CALM      30.34R
OFFUTT AFB     CLEAR     51  50  96 N1        30.33R
PLATTSMOUTH    CLEAR     58  44  60 CALM      30.33S
WAHOO          FAIR      51  47  89 N3        30.34S
$$



USA.gov is the U.S. government's official web portal to all federal, state and local government web resources and services.